Location: Boiro
(42.6475°N, 8.8834°W)
Time: 11:30:25
(UTC+01:00)

Altair - Pass Details

Date: 02 December 2021
Orbit: 1501 x 1683 km, 47.2° (Epoch: 17 January)

Event Time Altitude Azimuth Distance (km) Brightness Sun altitude
Rises 21:14:20 0° 284° (WNW) 4,696 11.0 -34.5°
Reaches altitude 10° 21:17:26 10° 286° (WNW) 3,694 10.2 -35.1°
Enters shadow 21:26:16 70° 352° (N) 1,589 7.4 -36.7°
